• Em Portugal
  • Lista de países
  • Para 7 dias
  • Temperatura da água
  • Mapas de satélite
  • Mapa do tempo
  • Widgets de tempo
  • user-avatar
    Iniciar Sessão

    Previsão horária em Melbourne

    Hoje, 24 Junho, Domingo

    Tempo Temperatura Precipitação Vento Pressão Humidade
    00:00 +8°C° 0 mm 2 m/s 770 mmHg 93%
    01:00 +8°C° 0 mm 2 m/s 770 mmHg 93%
    02:00 +7°C° 0 mm 2 m/s 770 mmHg 93%
    03:00 +7°C° 0 mm 2 m/s 770 mmHg 93%
    04:00 +7°C° 0 mm 2 m/s 770 mmHg 94%
    05:00 +7°C° 0 mm 2 m/s 770 mmHg 94%
    06:00 +7°C° 0 mm 2 m/s 771 mmHg 94%
    07:00 +7°C° 0 mm 2 m/s 771 mmHg 94%
    08:00 +8°C° 0 mm 2 m/s 771 mmHg 91%
    09:00 +9°C° 0 mm 2 m/s 771 mmHg 89%
    10:00 +10°C° 0 mm 2 m/s 771 mmHg 86%
    11:00 +12°C° 0 mm 2 m/s 771 mmHg 81%
    12:00 +12°C° 0 mm 2 m/s 771 mmHg 77%
    13:00 +13°C° 0 mm 2 m/s 771 mmHg 73%
    14:00 +13°C° 0 mm 2 m/s 771 mmHg 73%
    15:00 +12°C° 0 mm 2 m/s 770 mmHg 73%
    16:00 +12°C° 0 mm 2 m/s 770 mmHg 74%
    17:00 +10°C° 0 mm 2 m/s 770 mmHg 78%
    18:00 +10°C° 0 mm 2 m/s 771 mmHg 81%
    19:00 +9°C° 0 mm 2 m/s 771 mmHg 84%
    20:00 +8°C° 0 mm 2 m/s 771 mmHg 86%
    21:00 +8°C° 0 mm 2 m/s 771 mmHg 87%
    22:00 +7°C° 0 mm 2 m/s 771 mmHg 89%
    23:00 +7°C° 0 mm 2 m/s 772 mmHg 90%

    Amanhã, 25 Junho, Segunda-feira

    Tempo Temperatura Precipitação Vento Pressão Humidade
    00:00 +7°C° 0 mm 2 m/s 772 mmHg 91%
    01:00 +7°C° 0 mm 2 m/s 772 mmHg 91%
    02:00 +6°C° 0 mm 2 m/s 772 mmHg 92%
    03:00 +6°C° 0 mm 2 m/s 772 mmHg 92%
    04:00 +6°C° 0 mm 2 m/s 772 mmHg 93%
    05:00 +6°C° 0 mm 2 m/s 772 mmHg 93%
    06:00 +6°C° 0 mm 2 m/s 772 mmHg 93%
    07:00 +6°C° 0 mm 2 m/s 772 mmHg 94%
    08:00 +8°C° 0 mm 2 m/s 772 mmHg 89%
    09:00 +9°C° 0 mm 2 m/s 772 mmHg 85%
    10:00 +10°C° 0 mm 2 m/s 773 mmHg 81%
    11:00 +12°C° 0 mm 2 m/s 772 mmHg 76%
    12:00 +13°C° 0 mm 2 m/s 772 mmHg 71%
    13:00 +14°C° 0 mm 2 m/s 772 mmHg 66%
    14:00 +14°C° 0 mm 2 m/s 772 mmHg 68%
    15:00 +14°C° 0 mm 1 m/s 772 mmHg 69%
    16:00 +14°C° 0 mm 1 m/s 771 mmHg 71%
    17:00 +12°C° 0 mm 1 m/s 772 mmHg 78%
    18:00 +11°C° 0 mm 1 m/s 772 mmHg 84%
    19:00 +8°C° 0 mm 0 m/s 772 mmHg 90%
    20:00 +9°C° 0 mm 1 m/s 772 mmHg 91%
    21:00 +8°C° 0 mm 1 m/s 773 mmHg 92%
    22:00 +8°C° 0 mm 1 m/s 773 mmHg 93%
    23:00 +8°C° 0 mm 1 m/s 773 mmHg 93%

    Depois de amanhã, 26 Junho, Terça-feira

    Tempo Temperatura Precipitação Vento Pressão Humidade
    00:00 +8°C° 0 mm 1 m/s 773 mmHg 94%
    01:00 +8°C° 0 mm 1 m/s 773 mmHg 94%
    02:00 +8°C° 0 mm 1 m/s 773 mmHg 95%
    03:00 +7°C° 0 mm 1 m/s 773 mmHg 95%
    04:00 +7°C° 0 mm 1 m/s 773 mmHg 95%
    05:00 +7°C° 0 mm 1 m/s 773 mmHg 96%
    06:00 +7°C° 0 mm 1 m/s 773 mmHg 96%
    07:00 +6°C° 0 mm 0 m/s 773 mmHg 96%
    08:00 +8°C° 0 mm 1 m/s 773 mmHg 91%
    09:00 +10°C° 0 mm 1 m/s 774 mmHg 87%
    10:00 +11°C° 0 mm 1 m/s 774 mmHg 82%
    11:00 +13°C° 0 mm 1 m/s 774 mmHg 76%
    12:00 +14°C° 0 mm 1 m/s 773 mmHg 70%
    13:00 +15°C° 0 mm 1 m/s 773 mmHg 63%
    14:00 +15°C° 0 mm 1 m/s 772 mmHg 65%
    15:00 +15°C° 0 mm 1 m/s 772 mmHg 67%
    16:00 +14°C° 0 mm 1 m/s 772 mmHg 69%
    17:00 +13°C° 0 mm 1 m/s 772 mmHg 76%
    18:00 +11°C° 0 mm 1 m/s 773 mmHg 83%
    19:00 +10°C° 0 mm 1 m/s 773 mmHg 90%
    20:00 +9°C° 0 mm 1 m/s 773 mmHg 91%
    21:00 +9°C° 0 mm 1 m/s 773 mmHg 92%
    22:00 +9°C° 0 mm 1 m/s 773 mmHg 94%
    23:00 +9°C° 0 mm 1 m/s 773 mmHg 93%

    27 Junho, Quarta-feira

    Tempo Temperatura Precipitação Vento Pressão Humidade
    00:00 +8°C° 0 mm 0 m/s 773 mmHg 93%
    01:00 +8°C° 0 mm 0 m/s 772 mmHg 93%
    02:00 +8°C° 0 mm 0 m/s 772 mmHg 93%
    03:00 +7°C° 0 mm 0 m/s 772 mmHg 93%
    04:00 +7°C° 0 mm 0 m/s 772 mmHg 93%
    05:00 +7°C° 0 mm 0 m/s 772 mmHg 93%
    06:00 +8°C° 0 mm 0 m/s 772 mmHg 93%
    07:00 +8°C° 0 mm 0 m/s 772 mmHg 93%
    08:00 +9°C° 0 mm 0 m/s 772 mmHg 88%
    09:00 +10°C° 0 mm 0 m/s 772 mmHg 82%
    10:00 +11°C° 0 mm 0 m/s 772 mmHg 77%
    11:00 +12°C° 0 mm 0 m/s 772 mmHg 73%
    12:00 +13°C° 0 mm 0 m/s 771 mmHg 69%
    13:00 +15°C° 0 mm 1 m/s 770 mmHg 64%
    14:00 +14°C° 0,1 mm 1 m/s 770 mmHg 68%
    15:00 +14°C° 0,1 mm 1 m/s 770 mmHg 71%
    16:00 +13°C° 0,1 mm 1 m/s 770 mmHg 75%
    17:00 +12°C° 0 mm 1 m/s 770 mmHg 79%
    18:00 +11°C° 0 mm 1 m/s 769 mmHg 84%
    19:00 +10°C° 0 mm 1 m/s 769 mmHg 88%
    20:00 +10°C° 0 mm 1 m/s 769 mmHg 89%
    21:00 +10°C° 0 mm 1 m/s 769 mmHg 90%
    22:00 +10°C° 0 mm 1 m/s 769 mmHg 91%
    23:00 +10°C° 0,1 mm 1 m/s 768 mmHg 92%

    28 Junho, Quinta-feira

    Tempo Temperatura Precipitação Vento Pressão Humidade
    00:00 +9°C° 0,1 mm 1 m/s 768 mmHg 93%
    01:00 +9°C° 0,1 mm 1 m/s 767 mmHg 94%
    02:00 +9°C° 0,1 mm 1 m/s 767 mmHg 94%
    03:00 +9°C° 0,1 mm 0 m/s 766 mmHg 94%
    04:00 +9°C° 0,1 mm 0 m/s 766 mmHg 94%
    05:00 +9°C° 0,1 mm 0 m/s 766 mmHg 94%
    06:00 +9°C° 0,1 mm 0 m/s 765 mmHg 94%
    07:00 +9°C° 0,1 mm 0 m/s 765 mmHg 94%
    08:00 +10°C° 0 mm 1 m/s 765 mmHg 93%
    09:00 +10°C° 0 mm 1 m/s 765 mmHg 91%
    10:00 +11°C° 0 mm 1 m/s 765 mmHg 90%
    11:00 +11°C° 0 mm 1 m/s 764 mmHg 88%
    12:00 +12°C° 0 mm 2 m/s 764 mmHg 85%
    13:00 +13°C° 0 mm 2 m/s 763 mmHg 83%
    14:00 +13°C° 0 mm 2 m/s 763 mmHg 83%
    15:00 +13°C° 0 mm 2 m/s 763 mmHg 83%
    16:00 +13°C° 0 mm 2 m/s 763 mmHg 83%
    17:00 +12°C° 0,1 mm 2 m/s 763 mmHg 85%
    18:00 +12°C° 0,1 mm 2 m/s 763 mmHg 88%
    19:00 +10°C° 0,1 mm 3 m/s 763 mmHg 90%
    20:00 +10°C° 0 mm 3 m/s 763 mmHg 90%
    21:00 +9°C° 0 mm 3 m/s 764 mmHg 90%
    22:00 +9°C° 0 mm 3 m/s 764 mmHg 91%
    23:00 +9°C° 0 mm 3 m/s 763 mmHg 90%

    29 Junho, Sexta-feira

    Tempo Temperatura Precipitação Vento Pressão Humidade
    00:00 +9°C° 0 mm 3 m/s 763 mmHg 89%
    01:00 +8°C° 0 mm 3 m/s 763 mmHg 89%
    02:00 +8°C° 0 mm 3 m/s 763 mmHg 89%
    03:00 +8°C° 0 mm 3 m/s 763 mmHg 88%
    04:00 +8°C° 0 mm 3 m/s 763 mmHg 88%
    05:00 +7°C° 0 mm 4 m/s 763 mmHg 88%
    06:00 +7°C° 0 mm 4 m/s 763 mmHg 88%
    07:00 +7°C° 0 mm 4 m/s 763 mmHg 88%
    08:00 +8°C° 0 mm 4 m/s 763 mmHg 83%
    09:00 +8°C° 0 mm 5 m/s 763 mmHg 79%
    10:00 +9°C° 0 mm 5 m/s 763 mmHg 74%
    11:00 +10°C° 0 mm 5 m/s 763 mmHg 71%
    12:00 +12°C° 0 mm 4 m/s 763 mmHg 68%
    13:00 +12°C° 0 mm 4 m/s 763 mmHg 65%
    14:00 +11°C° 0,1 mm 4 m/s 763 mmHg 70%
    15:00 +11°C° 0,1 mm 4 m/s 763 mmHg 75%
    16:00 +10°C° 0,1 mm 3 m/s 763 mmHg 80%
    17:00 +9°C° 0,1 mm 3 m/s 763 mmHg 83%
    18:00 +9°C° 0,1 mm 3 m/s 764 mmHg 87%
    19:00 +8°C° 0,1 mm 3 m/s 764 mmHg 91%
    20:00 +7°C° 0 mm 2 m/s 765 mmHg 91%
    21:00 +7°C° 0 mm 2 m/s 765 mmHg 92%
    22:00 +6°C° 0 mm 2 m/s 766 mmHg 92%
    23:00 +6°C° 0 mm 2 m/s 766 mmHg 91%
    Mostrar mais